Main page
METAR-TAF:

METAR-TAF

Airports :

Gachsaran, Iran

latitude: 30-26N, longitude: 050-46E, elevation: 738 m

Current weather observation

The report was made 44 minutes ago, at 15:00 UTC
Calm wind
Temperature 29°C
Humidity 31%
Pressure 1012 hPa
Visibility 10 km or more
Scattered clouds at a height of 4000 ft
Broken clouds at a height of 10000 ft

METAR: OIAH 201500Z 00000KT 9999 SCT040 BKN100 29/10 Q1012

Time: 20:14 (15:44 UTC)


TAF: missing

Weather observations and forecasts of more than 4000 airports (METAR and TAF reports).

The available stations are represented by yellow and red dots on the map.

Hover mouse over dot to see the name of the station.

Then click to see weather observations and forecasts.

To change the map : click on the green buttons with a black cross to zoom in, on the green button with a dash to zoom out, or on the green arrows for adjacent maps.


METAR-TAF: